This is the latest recevied weather packets stored in our database for station/object K1BWE-1. If no packets are shown the sender has not sent any weather packets the latest 10 day(s).
| Time | Temp. | Humidity | Pressure | Rain* | Wind** | Luminosity | Snow |
|---|---|---|---|---|---|---|---|
| 1777578547 | 27.78° C | 16% | 1010.7 hPa | 0 mm | - | 396 W/m² | - |
| 1777578242 | 27.78° C | 15% | 1011 hPa | 0 mm | - | 501 W/m² | - |
| 1777577937 | 27.78° C | 14% | 1011 hPa | 0 mm | - | 593 W/m² | - |
| 1777577330 | 27.22° C | 14% | 1011.1 hPa | 0 mm | - | 711 W/m² | - |
| 1777577026 | 27.78° C | 16% | 1011.3 hPa | 0 mm | - | 551 W/m² | - |
| 1777576724 | 28.33° C | 13% | 1011.1 hPa | 0 mm | - | 796 W/m² | - |
| 1777576120 | 28.33° C | 14% | 1011.5 hPa | 0 mm | - | 782 W/m² | - |
| 1777572771 | 26.67° C | 17% | 1012.4 hPa | 0 mm | - | 774 W/m² | - |
| 1777568213 | 25° C | 18% | 1013.1 hPa | 0 mm | - | 763 W/m² | - |
| 1777566087 | 23.33° C | 20% | 1013.1 hPa | 0 mm | - | 367 W/m² | - |
| 1777565783 | 23.33° C | 29% | 1013 hPa | 0 mm | - | 351 W/m² | - |
| 1777565177 | 23.33° C | 20% | 1013.3 hPa | 0 mm | - | 396 W/m² | - |
| 1777563959 | 22.78° C | 21% | 1013.8 hPa | 0 mm | - | 295 W/m² | - |
| 1777563350 | 22.22° C | 22% | 1013.4 hPa | 0 mm | - | 187 W/m² | - |
| 1777563047 | 22.78° C | 24% | 1013.7 hPa | 0 mm | - | 223 W/m² | - |
| 1777562742 | 22.22° C | 21% | 1013.3 hPa | 0 mm | - | 332 W/m² | - |
| 1777561532 | 20° C | 30% | 1013.7 hPa | 0 mm | - | 187 W/m² | - |
| 1777561228 | 19.44° C | 32% | 1014 hPa | 0 mm | - | 182 W/m² | - |
| 1777560927 | 19.44° C | 30% | 1013.8 hPa | 0 mm | - | 176 W/m² | - |
| 1777560624 | 18.89° C | 28% | 1014 hPa | 0 mm | - | 167 W/m² | - |
| 1777560322 | 18.33° C | 33% | 1014.2 hPa | 0 mm | - | 167 W/m² | - |
| 1777559715 | 17.22° C | 38% | 1014 hPa | 0 mm | - | 135 W/m² | - |
| 1777557584 | 15° C | 38% | 1013.8 hPa | 0 mm | - | 63 W/m² | - |
| 1777556368 | 14.44° C | 33% | 1013.4 hPa | 0 mm | - | 47 W/m² | - |
| 1777556063 | 14.44° C | 35% | 1013.6 hPa | 0 mm | - | 54 W/m² | - |
* Rain latest hour (hover to see other rain measurements)
** Current wind speed in m/s (hover to see current wind gust speed)